www.pogodaiklimat.ru

Погода и климат >> Архив погоды >> Россия >> Магаданская область >> Коркодон


ПОГОДА в Коркодоне

  • Прогноз погоды в Коркодоне
  • Монитор погоды в Коркодоне
  • Климат города

АРХИВ ПОГОДЫ в Коркодоне

Время (UTC), дата Ветер
(напр.,м/с)
 
Видим.   Явления Облачность Т
(С)
Тd
(С)
f
(%)
Тe
(С)
Тes
(С)
Комфортность P
(гПа)
Po
(гПа)
Тmin
(С)
Tmax
(С)
R
(мм)
R24
(мм)
S
(см)
09 18.04 С 1 50 км 4/3 1000 м
[Sc Ci fib]
-1.4 -8.2 60 -3 -3 1018.7 1006.1 +0.3
12 18.04 штиль 0 50 км 5/0
[Ac trans Ci fib]
-10.9 -11.6 95
15 18.04 штиль 0 50 км 5/0
[Ac trans Ci fib]
-10.9 -11.6 95
18 18.04 В 2 50 км 3/0
[Ci fib]
-11.4 -12.0 95 -16 -16 1023.1 1010.0
21 18.04 ЮВ 1 50 км ясно -8.4 -10.7 83 -11 -8 1023.9 1010.9 -19.7 75
00 19.04 ЮВ 3 50 км 3/0
[Ci fib]
-0.5 -7.6 59 -5 +1 1023.5 1010.9
03 19.04 ЮВ 3 50 км 3/0
[Ci fib]
+1.7 -9.2 44 -2 +4 1022.5 1010.0
06 19.04 ЮВ 3 50 км 3/0
[Ci fib]
+3.4 -7.9 43 0 +3 1021.5 1009.1
09 19.04 штиль 0 50 км 6/0
[Ci fib]
+1.7 -9.6 43 +1 +2 1022.0 1009.5 +3.6
12 19.04 штиль 0 50 км 3/0
[Ci fib]
-8.1 -12.7 69 -9 -9 1023.6 1010.7
15 19.04 штиль 0 50 км ясно -14.9 -15.5 95 -15 -15 1024.5 1011.2
18 19.04 штиль 0 50 км ясно -18.9 -19.5 95 -19 -19 1025.1 1011.6
21 19.04 В 1 50 км 3/0
[Ci fib]
-9.0 -12.9 73 -11 -9 1024.7 1011.7 -19.2 75
00 20.04 Ю 2 50 км 4/0
[Ci fib]
-1.3 -11.2 47 1022.9 1010.3
03 20.04 З 1 50 км 9/0
[Cs]
+3.6 -8.4 41 +3 +10 1020.9 1008.5
06 20.04 Ю 1 50 км 9/0
[Cs]
+4.8 -6.8 43 +4 +7 1019.7 1007.4
09 20.04 штиль 0 50 км 9/0
[Cs]
+1.6 -7.9 49 +1 +1 1019.9 1007.4 +5.0
12 20.04 штиль 0 50 км 10/0
[Ac trans Cs]
-3.8 -7.5 75 -5 -5 1020.2 1007.5
15 20.04 штиль 0 50 км 10/0
[Ac trans Cs]
-5.3 -8.2 80 -6 -6 1020.6 1007.8
18 20.04 штиль 0 50 км 10/0
[Ac trans Cs]
-5.1 -7.2 85 -6 -6 1020.8 1008.0
21 20.04 штиль 0 50 км 10/3 1000 м
[Sc Ac trans Cs]
-1.2 -5.9 70 -2 -1 1021.0 1008.4 -6.4 74
00 21.04 ЮВ 1 50 км 9/9 1000 м
[Sc]
+3.0 -5.6 53 1020.7 1008.3
03 21.04 ЮВ 2 50 км 9/8 1000 м
[Sc Ci fib]
+6.6 -3.9 47 +5 +6 1020.1 1007.9
06 21.04 ЮВ 2 50 км 9/3 1000 м
[Sc Ac trans Ci fib]
+8.2 -1.8 49 +7 +8 1019.4 1007.3
09 21.04 С 1 50 км 5/0
[Ci fib]
+6.0 -3.3 51 +5 +6 1019.6 1007.4 +8.3
12 21.04 В 1 50 км 4/0
[Ci fib]
-2.1 -3.8 88 -4 -4 1020.5 1007.9
15 21.04 штиль 0 50 км ясно -6.6 -7.1 96 -8 -8 1021.0 1008.1
18 21.04 В 1 50 км ясно -9.4 -9.7 98 -12 -12 1021.8 1008.8
21 21.04 В 1 50 км ясно -0.8 -4.6 75 -3 +1 1021.6 1009.0 -9.7 71
00 22.04 ЮВ 2 50 км 3/0
[Ci fib]
+5.7 -3.0 54 +4 +11 1020.9 1008.7
03 22.04 Ю 2 50 км 5/0
[Ci fib]
+9.6 -2.6 42 +9 +16 1020.0 1008.0
06 22.04 ЮВ 2 50 км 5/0
[Ci fib]
+10.4 -3.2 38 +10 +13 1019.8 1007.8
09 22.04 С 2 50 км 8/0
[Ci fib]
+7.1 -4.3 44 +6 +6 1020.6 1008.4 +11.3
12 22.04 штиль 0 50 км ясно -0.1 -3.8 76 -1 -1 1021.9 1009.4
15 22.04 СЗ 1 50 км ясно -5.6 -6.0 97 -8 -8 1022.8 1010.0
18 22.04 З 1 50 км ясно -8.7 -9.4 95 -11 -11 1024.0 1011.0
21 22.04 З 1 50 км 3/0
[Ci fib]
-1.5 -5.2 76 -3 -0 1024.3 1011.7 -9.1 68
00 23.04 З 3 50 км 3/0
[Ci fib]
+4.6 -4.6 51 +2 +8 1024.4 1012.0
03 23.04 З 3 50 км 3/0
[Ci fib]
+8.2 -3.7 43 +6 +13 1023.6 1011.4
06 23.04 З 2 50 км ясно +9.1 -3.4 41 +8 +12 1023.0 1010.8
09 23.04 З 3 50 км ясно +8.1 -3.9 42 +6 +6 1024.1 1011.9 +9.9
12 23.04 СЗ 1 50 км ясно -1.6 -3.8 85 1025.4 1013.0
15 23.04 СЗ 1 50 км ясно -3.6 -5.1 89 -6 -6 1026.6 1013.9
18 23.04 СЗ 1 50 км ясно -8.3 -8.6 98 -11 -11 1027.2 1014.2
21 23.04 З 1 50 км 3/0
[Ci fib]
-1.2 -5.2 74 -3 0 1027.2 1014.5 -8.6 65
00 24.04 З 2 50 км ясно +5.5 -2.9 55 +4 +11 1026.0 1013.6
03 24.04 З 2 50 км ясно +9.2 -3.2 42 +8 +16 1024.6 1011.6
06 24.04 З 2 50 км ясно +9.7 -3.2 40 +9 +12 1022.2 1010.1
09 24.04 С 2 50 км ясно +6.7 -5.3 42 +5 +5 1021.4 1009.2 +10.7
12 24.04 штиль 0 50 км ясно -2.4 -4.4 86 1021.2 1008.7
15 24.04 штиль 0 50 км ясно -5.9 -6.3 97 -7 -7 1021.2 1008.4
18 24.04 штиль 0 50 км 6/0
[Ci fib]
-9.1 -9.4 98 -10 -10 1020.9 1007.9
21 24.04 ЮВ 1 50 км 8/0
[Ci fib]
-1.3 -4.9 76 -3 -0 1019.5 1007.0 -9.3 61
00 25.04 Ю 1 50 км 9/0
[Ci fib]
+6.0 -3.3 51 +5 +13 1017.6 1005.4
03 25.04 Ю 1 50 км 4/3 1000 м
[Cu med, cong Ci fib]
+8.9 -3.3 42 +9 +16 1015.8 1003.7

 

Местоположение метеостанции Коркодон (Магаданская область, Россия): широта 64.75 долгота 153.90 высота над уровнем моря 99 м.

В архиве по умолчанию представлена погода в Коркодоне за последнюю неделю. Архивные данные за месяц целиком и за предыдущие месяцы, начиная с января 2011 года, Вы можете получить, выбрав интересующий диапазон дат из раскрывающегося списка и нажав кнопку "Ввод!".

Внимание! Время в таблицах - всемирное. Для получения местного времени необходимо прибавить поправку, которая в Коркодоне равна 11 ч.

Смотрите также архив погоды в соседних городах и на ближайших метеорологических станциях:

Погода в Балыгычане (Магаданская область, Россия) (94 км)
Погода в Зырянке (Якутия, Россия) (177 км)
Погода в Сеймчане (Магаданская область, Россия) (217 км)
Погода в Омсукчане (Магаданская область, Россия) (265 км)
Погода в Среднекане (Магаданская область, Россия) (268 км)
Погода в Совхозе Эльген (Магаданская область, Россия) (271 км)
Погода в Лабазной (Магаданская область, Россия) (276 км)
Погода в Среднеколымске (Якутия, Россия) (300 км)
Погода в Омолоне (Чукотка, Россия) (315 км)
Погода в Ягодной (Магаданская область, Россия) (327 км)

Пояснения к столбцам:

Ветер - указаны скорость ветра в м/с - средняя за 10 мин, порывы в срок и между сроками (в фигурных скобках) и направление, откуда дует ветер: С - северный, СВ - северо-восточный, В - восточный, ЮВ - юго-восточный, Ю - южный, ЮЗ - юго-западный, З - западный, СЗ - северо-западный.
Видимость - горизонтальная дальность видимости в метрах или километрах. При видимости от 1 до 10 км при отсутствии осадков обычно наблюдается дымка, при ухудшении видимости до 1 км и менее - туман. В сухую погоду видимость может ухудшаться дымом, пылью или мглою.
Явления - указаны атмосферные явления, наблюдавшиеся в срок или в последний час перед сроком; фигурными скобками обозначены явления, наблюдавшиеся между сроками (за 1-3 часа до срока); квадратными скобками обозначены град или гололедные отложения с указанием их диаметра в мм.
Облачность - указаны через наклонную черту общая и нижняя облачность в баллах и высота нижней границы облаков в метрах; квадратными скобками обозначены формы облаков: Ci - перистые, Cs - перисто-слоистые, Cc - перисто-кучевые, Ac - высококучевые, As - высокослоистые, Sc - слоисто-кучевые, Ns - слоисто-дождевые, Cu - кучевые, Cb - кучево-дождевые. Подробнее классификацию облаков см. в Атласе облаков (PDF).
T - Температура воздуха - температура, измеренная на высоте 2 м над землей.
Td - Температура точки росы - температура, при понижении до которой содержащийся в воздухе водяной пар достигнет насыщения.
f - Относительная влажность воздуха - влажноcть воздуха, измеренная на высоте 2 м над землей.
Te - Эффективная температура - температура, которую ощущает одетый по сезону человек в тени. Характеристика душности погоды. При расчете учитывается влияние влажности воздуха и скорости ветра на теплоощущения человека.
Tes - Эффективная температура на солнце - температура, которую ощущает человек, с поправкой на солнечный нагрев. Характеристика знойности погоды. Зависит от высоты солнца над горизонтом, облачности и скорости ветра. Ночью, в пасмурную погоду, а также при ветре 12 м/с и более поправка равна нулю.
P - Атмосферное давление - приведенное к уровню моря атмосферное давление.
Po - Атмосферное давление - измеренное на уровне метеостанции атмосферное давление.
Tmin - Минимальная температура - минимум температуры воздуха на высоте 2 м над землей.
Tmax - Максимальная температура - максимум температуры воздуха на высоте 2 м над землей.
R - Количество осадков - Количество выпавших осадков за период времени, мм. При наведении курсора мыши на число - период времени, за который выпало указанное количество осадков.
R24 - Количество осадков - Количество выпавших осадков за 24 часа, мм.
S - Снежный покров - Высота снежного покрова, см. При наведении курсора мыши на число - состояние снежного покрова и степень покрытия местности в баллах.